Regional Weather Roundup
Issued by NWS Wakefield, VA

Home | Current Version | Previous Version | Graphics & Text | Print | Product List | Glossary On
Versions: 1 2 3 4 5 6 7 8 9 10 11 12 13 14 15 16 17 18 19 20 21 22 23 24 25 26 27 28 29 30 31 32 33 34 35 36 37 38 39 40 41 42 43 44 45 46 47 48 49 50
239
ASUS41 KAKQ 202014
RWRAKQ

REGIONAL WEATHER ROUNDUP
NATIONAL WEATHER SERVICE WAKEFIELD VA
300 PM EST MON NOV 20 2017

Note: "fair" indicates few or no clouds below 12,000 feet with no
significant weather and/or obstructions to visibility. * = Denotes
station may not report precipitation (e.g., rain,snow,etc.),
thunder or fog.

VAZ042-051-052>054-056-202100-
NORTHERN VIRGINIA

CITY           SKY/WX    TMP DP  RH WIND       PRES   REMARKS
WASH NATIONAL  MOSUNNY   52  21  29 W18       30.18S
DULLES         MOSUNNY   51  22  31 SW14      30.16F
FORT BELVOIR   SUNNY     53  20  27 W8        30.17F
QUANTICO       MOSUNNY   54  22  28 NW8       30.19F
FREDERICKSBRG* SUNNY     53  24  32 SW9       30.17F
STAFFORD*      SUNNY     51  20  29 SW7       30.21F
WARRENTON      NOT AVBL
CULPEPER*      SUNNY     53  18  25 SW12      30.18F
MANASSAS*      SUNNY     51  22  31 SW12      30.18S
LEESBURG*      SUNNY     52  27  37 W14       30.16S
WINCHESTER     SUNNY     48  21  34 SW7       30.13S
FRONT ROYAL*   CLEAR     50  21  32 MISG      30.13S
LURAY*         CLEAR     50  23  34 S10G17    30.15F
$$

VAZ048-049-060>072-079>083-202100-
CENTRAL AND SOUTH CENTRAL VIRGINIA

CITY           SKY/WX    TMP DP  RH WIND       PRES   REMARKS
RICHMOND       SUNNY     53  21  28 SW5       30.19F
CHESTERFIELD*  NOT AVBL
PETERSBURG*    SUNNY    N/A N/A N/A CALM      30.21F
HANOVER        SUNNY     53  22  29 VRB5      30.20F
TAPPAHANNOCK*    N/A    N/A N/A N/A MISG        N/A
QUINTON*       FAIR      53  22  29 SW3       30.20F
CHARLOTTSVILLE SUNNY     53  19  26 VRB5      30.17F
GORDONSVILLE*  CLEAR     52  20  28 SW14      30.17S
ORANGE*        SUNNY     52  21  30 SW9       30.18S
LOUISA*        SUNNY     53  20  27 S6        30.22S
BUMPASS*       FAIR      53  17  24 SW5       30.18F
FARMVILLE*     SUNNY     55  25  30 CALM      30.18F
CREWE*         FAIR      54  25  32 CALM      30.19F
FORT PICKETT*  NOT AVBL
CHASE CITY*    FAIR      53  25  33 CALM      30.21S
CLARKSVILLE*   FAIR      54  27  35 CALM      30.21F
SOUTH HILL*    SUNNY     53  27  37 CALM      30.27S
LAWRENCEVILLE* FAIR      54  23  30 CALM      30.20F
EMPORIA*       SUNNY     52  23  32 W3        30.23F
$$

VAZ088>098-202100-
SOUTHEAST VIRGINIA

CITY           SKY/WX    TMP DP  RH WIND       PRES   REMARKS
NORFOLK        SUNNY     53  25  33 VRB5      30.22S
VIRGINIA BEACH SUNNY     53  23  31 W6        30.22S
NORFOLK NAVAL  SUNNY     52  25  35 W7        30.23F
WEST POINT*    SUNNY     54  20  27 SW6       30.22F
SALUDA*        FAIR      53  25  33 W3        30.20S
NEWPORT NEWS   SUNNY     53  25  33 W8        30.22S
LANGLEY AFB    SUNNY     53  28  38 W10       30.21F
FORT EUSTIS    SUNNY     53  27  37 NW6       30.19F
WILLIAMSBURG*  SUNNY     57  27  30 SW6       30.22S
HR EXEC AP*    NOT AVBL
FRANKLIN*      SUNNY     53  23  31 N3        30.23F
US460-WAKEFLD  SUNNY     54  25  32 SW3       30.22F
$$

VAZ020-022-025-037-045-202100-
WEST CENTRAL AND SOUTHWEST VIRGINIA

CITY           SKY/WX    TMP DP  RH WIND       PRES   REMARKS
STAUNTON*      SUNNY     47  21  35 S13G18    30.17F
WAYNESBORO*    CLEAR     48  20  33 SW6       30.16F
HOT SPRINGS VA SUNNY     39  15  37 CALM      30.12S
LYNCHBURG      SUNNY     51  20  29 W8        30.20S
DANVILLE       SUNNY     55  23  28 NW3       30.21F
SOUTH BOSTON*  FAIR      55  20  26 S3        30.21F
MARTINSVILLE   SUNNY     54  22  28 CALM      30.22S
ROANOKE        SUNNY     51  22  31 W10       30.20F
BLACKSBURG     SUNNY     48  22  35 W3        30.21F
DUBLIN*        SUNNY     50  24  36 SW7       30.19F
MARION*        SUNNY     48  10  22 SW9       30.20F
HILLSVILLE*    SUNNY     50  16  25 W5        30.15F
RICHLANDS*     FAIR      46  20  35 SW5       30.17F
WISE*          SUNNY     46  27  46 E5        30.16F
ABINGDON*      SUNNY     50  18  28 CALM      30.18F
$$

MDZ021>025-VAZ099-100-202100-
SOUTHERN MARYLAND AND THE DELMARVA PENINSULA

CITY           SKY/WX    TMP DP  RH WIND       PRES   REMARKS
PATUXENT RIVER MOSUNNY   51  24  34 W9        30.18F
BAY BRIDGE APT SUNNY     50  25  37 W8        30.17S
LEONARDTOWN    SUNNY     50  23  34 W9        30.19S
DOVER          SUNNY     48  23  37 W16       30.15S
GEORGETOWN     SUNNY     49  21  33 W10       30.17S
EASTON         SUNNY     50  21  32 W9        30.20F
CAMBRIDGE      SUNNY     50  23  34 W8        30.18S
SALISBURY      SUNNY     49  25  39 W12       30.17F
OCEAN CITY     SUNNY     50  25  37 W9G17     30.18S
WALLOPS ISLAND MOSUNNY   49  27  42 W12       30.20S
ACCOMACK*      SUNNY     51  28  40 W5        30.20F
$$

NCZ012>017-030>032-202100-
NORTH CENTRAL AND EASTERN NORTH CAROLINA

CITY           SKY/WX    TMP DP  RH WIND       PRES   REMARKS
ROANOKE RAPIDS FAIR      54  28  37 W5        30.22F
RALEIGH        MOSUNNY   57  23  26 SW5       30.23S
ELIZABETH CITY SUNNY     54  30  40 W8        30.23S
AHOSKIE*       SUNNY     53  25  33 CALM      30.23F
EDENTON*       SUNNY     55  28  35 CALM      30.24S
CURRITUCK*     SUNNY     54  24  32 SW3       30.23S
KILL DEVIL HLS NOT AVBL
MANTEO         SUNNY     50  31  47 NW5       30.24S
CAPE HATTERAS  SUNNY     55  36  48 N6        30.23S
TARBORO*       NOT AVBL
GOLDSBORO      SUNNY     57  25  29 CALM      30.21F
WASHINGTON     SUNNY     56  28  33 NW5       30.23F
GREENVILLE     SUNNY     55  27  33 CALM      30.24S
NEW BERN       SUNNY     56  28  34 CALM      30.24S
WILMINGTON     SUNNY     60  28  29 CALM      30.23S
$$

VAZ048-202100-
ELSEWHERE

CITY           SKY/WX    TMP DP  RH WIND       PRES   REMARKS
HARRISBURG PA  PTSUNNY   48  25  40 VRB7G16   30.10S
BALTIMORE      MOSUNNY   50  22  33 SW9       30.16R
ANNAPOLIS      NOT AVBL
ANDREWS AFB    SUNNY     50  19  29 W10       30.16F
PHILADELPHIA   MOSUNNY   48  22  35 W18       30.12S
HENDERSON NC   SUNNY     51  20  30 CALM      30.22S
GREENSBORO     MOSUNNY   55  19  24 S5        30.20F
ROCKY MOUNT    SUNNY     54  25  32 VRB3      30.23F
$$

VAZ100-202100-
MARINE

STATION/POSITION TIME  TEMP    WIND        PRES    WAVE   SWELL
                       AIR SEA DIR/SP/G            HT/PER HT/PER
                 (UTC) (F)     (DEG/KT/KT) (MB)    (FT/S) (FT/S)
BRANDYWINE LGT   1942   47     260/ 20/ 22 1021.2F
CAPE MAY NJ      1942   46 47  280/ 16/ 20 1020.5F
LEWES DE         1942   48 51  280/ 13/ 16 1021.0F
15NM E FENWICK I 1950   48 59  260/ 16/ 19 1021.8R   3/ 4
OCEAN-CITY-INLET 1942   49 55  320/  9/ 13 1022.2R
WACHAPREAGUE VA  1942   51 51  280/  3/  8 1022.7F
THOMAS POINT MD  2000   49 53  260/  9/ 10   N/A
GOOSES REEF MD   1950   51     300/ 12/ 16 1027.1F
COVE POINT MD    1942   50     290/  9/ 13 1022.6F
SOLOMONS ISLAND  1942   52 54  260/ 11/ 16 1021.6F
BISHOPS HEAD MD  1942   42 47  270/ 13/ 14 1022.4F
PINEY POINT MD   1942          340/ 10/ 11   N/A
POTOMAC MD       1950   52     270/ 10/ 12 1021.7F
CAMBRIDGE MD     1942   51 50              1022.5F
LEWISETTA VA     1942   51 52  300/  8/  9 1022.2F
RAPPAHANNOCK LGT 1942          190/  4/  6 1023.5F
STINGRAY PT      1950   52     290/  8/ 12 1022.8F
YORK RVR RNG VA  1942   51     270/  7/  9 1023.5F
YORKTOWN VA      1942   52 54  260/  8/ 11 1022.6F
JAMESTOWN VA     1950          300/  4/  6   N/A
DOMINION TERM VA 1942   51     320/  6/  7 1023.3F
KIPTOPEKE VA     1942      53  270/  7/  9   N/A
CAPE HENRY VA    1942   50     290/  8/ 12   N/A
WILLOUBY STN VA  1942   51     280/  8/  9 1023.2F
S CRANEY ISL VA  1942   53     260/  3/  5 1023.1F
CAPE HENRY BUOY  2000      59                N/A     2/ 3
1ST LANDING BUOY 1950   50     270/ 10/ 12 1023.5F
CAPE CHARLES BUO 1951      58                N/A     1/ 8
64NM E OF VA BCH 1950   50 60  290/ 12/ 16 1023.7R   5/ 7   3/ 7
DUCK PIER NC     1942   51 60  340/  6/  8 1023.3S
44100 DUCK FRF   1945      61                N/A     2/ 8
44056 DUCK FRF   2000      61                N/A     2/ 5
OREGON INLET NC  1942   50 55  310/  8/ 10 1023.7R
HATTERAS NC      1942   52 58  350/  8/ 10 1023.4S
DIAMOND SHLS NC  1950   53 65  350/ 10/ 14 1023.8F   3/ 8   3/ 8
CAPE LOOKOUT NC  2000           30/  4/  6 1023.8F
$$




USA.gov is the U.S. government's official web portal to all federal, state and local government web resources and services.